Year,Month,Day,Hour,Minute,Value (Times are PST for temperature in C)
2015,08,28,00,00,19.20
2015,08,28,00,01,19.20
2015,08,28,00,02,19.20
2015,08,28,00,03,19.20
2015,08,28,00,04,19.20
2015,08,28,00,05,19.20
2015,08,28,00,06,19.20
2015,08,28,00,07,19.20
2015,08,28,00,08,19.20
2015,08,28,00,09,19.10
2015,08,28,00,10,19.10
2015,08,28,00,11,19.10
2015,08,28,00,12,19.00
2015,08,28,00,13,19.00
2015,08,28,00,14,18.90
2015,08,28,00,15,18.90
2015,08,28,00,16,18.90
2015,08,28,00,17,18.90
2015,08,28,00,18,18.90
2015,08,28,00,19,18.90
2015,08,28,00,20,18.90
2015,08,28,00,21,18.90
2015,08,28,00,22,18.90
2015,08,28,00,23,18.90
2015,08,28,00,24,18.90
2015,08,28,00,25,18.90
2015,08,28,00,26,18.90
2015,08,28,00,27,18.90
2015,08,28,00,28,18.90
2015,08,28,00,29,18.90
2015,08,28,00,30,18.90
2015,08,28,00,31,18.90
2015,08,28,00,32,18.90
2015,08,28,00,33,18.90
2015,08,28,00,34,18.80
2015,08,28,00,35,18.80
2015,08,28,00,36,18.80
2015,08,28,00,37,18.70
2015,08,28,00,38,18.70
2015,08,28,00,39,18.60
2015,08,28,00,40,18.60
2015,08,28,00,41,18.50
2015,08,28,00,42,18.40
2015,08,28,00,43,18.40
2015,08,28,00,44,18.30
2015,08,28,00,45,18.30
2015,08,28,00,46,18.20
2015,08,28,00,47,18.20
2015,08,28,00,48,18.10
2015,08,28,00,49,18.10
2015,08,28,00,50,18.00
2015,08,28,00,51,18.00
2015,08,28,00,52,17.90
2015,08,28,00,53,17.90
2015,08,28,00,54,17.80
2015,08,28,00,55,17.80
2015,08,28,00,56,17.70
2015,08,28,00,57,17.70
2015,08,28,00,58,17.70
2015,08,28,00,59,17.60
2015,08,28,01,00,17.60
2015,08,28,01,01,17.50
2015,08,28,01,02,17.50
2015,08,28,01,03,17.40
2015,08,28,01,04,17.40
2015,08,28,01,05,17.40
2015,08,28,01,06,17.30
2015,08,28,01,07,17.30
2015,08,28,01,08,17.30
2015,08,28,01,09,17.30
2015,08,28,01,10,17.30
2015,08,28,01,11,17.30
2015,08,28,01,12,17.30
2015,08,28,01,13,17.20
2015,08,28,01,14,17.20
2015,08,28,01,15,17.10
2015,08,28,01,16,17.10
2015,08,28,01,17,17.00
2015,08,28,01,18,16.90
2015,08,28,01,19,16.90
2015,08,28,01,20,16.80
2015,08,28,01,21,16.80
2015,08,28,01,22,16.80
2015,08,28,01,23,16.80
2015,08,28,01,24,16.70
2015,08,28,01,25,16.70
2015,08,28,01,26,16.70
2015,08,28,01,27,16.70
2015,08,28,01,28,16.60
2015,08,28,01,29,16.50
2015,08,28,01,30,16.50
2015,08,28,01,31,16.40
2015,08,28,01,32,16.40
2015,08,28,01,33,16.30
2015,08,28,01,34,16.30
2015,08,28,01,35,16.30
2015,08,28,01,36,16.30
2015,08,28,01,37,16.30
2015,08,28,01,38,16.20
2015,08,28,01,39,16.20
2015,08,28,01,40,16.20
2015,08,28,01,41,16.20
2015,08,28,01,42,16.20
2015,08,28,01,43,16.20
2015,08,28,01,44,16.20
2015,08,28,01,45,16.10
2015,08,28,01,46,16.10
2015,08,28,01,47,16.10
2015,08,28,01,48,16.10
2015,08,28,01,49,16.00
2015,08,28,01,50,16.00
2015,08,28,01,51,16.00
2015,08,28,01,52,15.90
2015,08,28,01,53,15.90
2015,08,28,01,54,15.90
2015,08,28,01,55,15.90
2015,08,28,01,56,15.90
2015,08,28,01,57,15.90
2015,08,28,01,58,15.80
2015,08,28,01,59,15.80
2015,08,28,02,00,15.80
2015,08,28,02,01,15.80
2015,08,28,02,02,15.80
2015,08,28,02,03,15.80
2015,08,28,02,04,15.80
2015,08,28,02,05,15.80
2015,08,28,02,06,15.80
2015,08,28,02,07,15.80
2015,08,28,02,08,15.80
2015,08,28,02,09,15.80
2015,08,28,02,10,15.80
2015,08,28,02,11,15.80
2015,08,28,02,12,15.80
2015,08,28,02,13,15.80
2015,08,28,02,14,15.80
2015,08,28,02,15,15.80
2015,08,28,02,16,15.80
2015,08,28,02,17,15.90
2015,08,28,02,18,15.90
2015,08,28,02,19,15.90
2015,08,28,02,20,15.90
2015,08,28,02,21,15.80
2015,08,28,02,22,15.80
2015,08,28,02,23,15.80
2015,08,28,02,24,15.80
2015,08,28,02,25,15.80
2015,08,28,02,26,15.70
2015,08,28,02,27,15.70
2015,08,28,02,28,15.70
2015,08,28,02,29,15.60
2015,08,28,02,30,15.60
2015,08,28,02,31,15.50
2015,08,28,02,32,15.50
2015,08,28,02,33,15.40
2015,08,28,02,34,15.40
2015,08,28,02,35,15.40
2015,08,28,02,36,15.40
2015,08,28,02,37,15.40
2015,08,28,02,38,15.40
2015,08,28,02,39,15.30
2015,08,28,02,40,15.30
2015,08,28,02,41,15.30
2015,08,28,02,42,15.30
2015,08,28,02,43,15.30
2015,08,28,02,44,15.30
2015,08,28,02,45,15.30
2015,08,28,02,46,15.30
2015,08,28,02,47,15.30
2015,08,28,02,48,15.30
2015,08,28,02,49,15.30
2015,08,28,02,50,15.30
2015,08,28,02,51,15.20
2015,08,28,02,52,15.20
2015,08,28,02,53,15.10
2015,08,28,02,54,15.10
2015,08,28,02,55,15.00
2015,08,28,02,56,15.00
2015,08,28,02,57,15.00
2015,08,28,02,58,15.00
2015,08,28,02,59,15.00
2015,08,28,03,00,15.00
2015,08,28,03,01,15.00
2015,08,28,03,02,15.00
2015,08,28,03,03,15.00
2015,08,28,03,04,15.00
2015,08,28,03,05,15.00
2015,08,28,03,06,14.90
2015,08,28,03,07,14.90
2015,08,28,03,08,14.80
2015,08,28,03,09,14.80
2015,08,28,03,10,14.80
2015,08,28,03,11,14.80
2015,08,28,03,12,14.80
2015,08,28,03,13,14.70
2015,08,28,03,14,14.70
2015,08,28,03,15,14.60
2015,08,28,03,16,14.60
2015,08,28,03,17,14.50
2015,08,28,03,18,14.50
2015,08,28,03,19,14.50
2015,08,28,03,20,14.50
2015,08,28,03,21,14.50
2015,08,28,03,22,14.50
2015,08,28,03,23,14.50
2015,08,28,03,24,14.50
2015,08,28,03,25,14.50
2015,08,28,03,26,14.60
2015,08,28,03,27,14.60
2015,08,28,03,28,14.60
2015,08,28,03,29,14.60
2015,08,28,03,30,14.60
2015,08,28,03,31,14.50
2015,08,28,03,32,14.60
2015,08,28,03,33,14.60
2015,08,28,03,34,14.60
2015,08,28,03,35,14.60
2015,08,28,03,36,14.60
2015,08,28,03,37,14.60
2015,08,28,03,38,14.70
2015,08,28,03,39,14.70
2015,08,28,03,40,14.70
2015,08,28,03,41,14.60
2015,08,28,03,42,14.60
2015,08,28,03,43,14.60
2015,08,28,03,44,14.60
2015,08,28,03,45,14.60
2015,08,28,03,46,14.60
2015,08,28,03,47,14.60
2015,08,28,03,48,14.60
2015,08,28,03,49,14.60
2015,08,28,03,50,14.60
2015,08,28,03,51,14.50
2015,08,28,03,52,14.50
2015,08,28,03,53,14.50
2015,08,28,03,54,14.50
2015,08,28,03,55,14.50
2015,08,28,03,56,14.50
2015,08,28,03,57,14.50
2015,08,28,03,58,14.50
2015,08,28,03,59,14.60
2015,08,28,04,00,14.60
2015,08,28,04,01,14.60
2015,08,28,04,02,14.60
2015,08,28,04,03,14.60
2015,08,28,04,04,14.50
2015,08,28,04,05,14.50
2015,08,28,04,06,14.50
2015,08,28,04,07,14.50
2015,08,28,04,08,14.50
2015,08,28,04,09,14.50
2015,08,28,04,10,14.50
2015,08,28,04,11,14.50
2015,08,28,04,12,14.50
2015,08,28,04,13,14.50
2015,08,28,04,14,14.60
2015,08,28,04,15,14.60
2015,08,28,04,16,14.60
2015,08,28,04,17,14.60
2015,08,28,04,18,14.60
2015,08,28,04,19,14.60
2015,08,28,04,20,14.60
2015,08,28,04,21,14.60
2015,08,28,04,22,14.60
2015,08,28,04,23,14.60
2015,08,28,04,24,14.60
2015,08,28,04,25,14.60
2015,08,28,04,26,14.60
2015,08,28,04,27,14.60
2015,08,28,04,28,14.60
2015,08,28,04,29,14.60
2015,08,28,04,30,14.60
2015,08,28,04,31,14.60
2015,08,28,04,32,14.60
2015,08,28,04,33,14.60
2015,08,28,04,34,14.70
2015,08,28,04,35,14.70
2015,08,28,04,36,14.70
2015,08,28,04,37,14.70
2015,08,28,04,38,14.70
2015,08,28,04,39,14.70
2015,08,28,04,40,14.70
2015,08,28,04,41,14.70
2015,08,28,04,42,14.70
2015,08,28,04,43,14.70
2015,08,28,04,44,14.70
2015,08,28,04,45,14.70
2015,08,28,04,46,14.70
2015,08,28,04,47,14.70
2015,08,28,04,48,14.70
2015,08,28,04,49,14.70
2015,08,28,04,50,14.70
2015,08,28,04,51,14.70
2015,08,28,04,52,14.70
2015,08,28,04,53,14.70
2015,08,28,04,54,14.70
2015,08,28,04,55,14.70
2015,08,28,04,56,14.70
2015,08,28,04,57,14.70
2015,08,28,04,58,14.70
2015,08,28,04,59,14.70
2015,08,28,05,00,14.70
2015,08,28,05,01,14.70
2015,08,28,05,02,14.60
2015,08,28,05,03,14.60
2015,08,28,05,04,14.60
2015,08,28,05,05,14.60
2015,08,28,05,06,14.60
2015,08,28,05,07,14.60
2015,08,28,05,08,14.60
2015,08,28,05,09,14.60
2015,08,28,05,10,14.60
2015,08,28,05,11,14.60
2015,08,28,05,12,14.60
2015,08,28,05,13,14.60
2015,08,28,05,14,14.60
2015,08,28,05,15,14.60
2015,08,28,05,16,14.60
2015,08,28,05,17,14.60
2015,08,28,05,18,14.60
2015,08,28,05,19,14.60
2015,08,28,05,20,14.60
2015,08,28,05,21,14.60
2015,08,28,05,22,14.60
2015,08,28,05,23,14.60
2015,08,28,05,24,14.60
2015,08,28,05,25,14.70
2015,08,28,05,26,14.70
2015,08,28,05,27,14.70
2015,08,28,05,28,14.70
2015,08,28,05,29,14.70
2015,08,28,05,30,14.70
2015,08,28,05,31,14.70
2015,08,28,05,32,14.70
2015,08,28,05,33,14.60
2015,08,28,05,34,14.60
2015,08,28,05,35,14.60
2015,08,28,05,36,14.50
2015,08,28,05,37,14.50
2015,08,28,05,38,14.50
2015,08,28,05,39,14.40
2015,08,28,05,40,14.40
2015,08,28,05,41,14.40
2015,08,28,05,42,14.40
2015,08,28,05,43,14.40
2015,08,28,05,44,14.40
2015,08,28,05,45,14.30
2015,08,28,05,46,14.30
2015,08,28,05,47,14.30
2015,08,28,05,48,14.30
2015,08,28,05,49,14.30
2015,08,28,05,50,14.30
2015,08,28,05,51,14.30
2015,08,28,05,52,14.30
2015,08,28,05,53,14.30
2015,08,28,05,54,14.30
2015,08,28,05,55,14.30
2015,08,28,05,56,14.30
2015,08,28,05,57,14.40
2015,08,28,05,58,14.40
2015,08,28,05,59,14.40
2015,08,28,06,00,14.40
2015,08,28,06,01,14.40
2015,08,28,06,02,14.50
2015,08,28,06,03,14.50
2015,08,28,06,04,14.60
2015,08,28,06,05,14.60
2015,08,28,06,06,14.60
2015,08,28,06,07,14.60
2015,08,28,06,08,14.60
2015,08,28,06,09,14.60
2015,08,28,06,10,14.60
2015,08,28,06,11,14.60
2015,08,28,06,12,14.60
2015,08,28,06,13,14.60
2015,08,28,06,14,14.70
2015,08,28,06,15,14.70
2015,08,28,06,16,14.70
2015,08,28,06,17,14.70
2015,08,28,06,18,14.70
2015,08,28,06,19,14.70
2015,08,28,06,20,14.70
2015,08,28,06,21,14.70
2015,08,28,06,22,14.70
2015,08,28,06,23,14.70
2015,08,28,06,24,14.70
2015,08,28,06,25,14.70
2015,08,28,06,26,14.70
2015,08,28,06,27,14.70
2015,08,28,06,28,14.70
2015,08,28,06,29,14.70
2015,08,28,06,30,14.70
2015,08,28,06,31,14.70
2015,08,28,06,32,14.70
2015,08,28,06,33,14.70
2015,08,28,06,34,14.70
2015,08,28,06,35,14.70
2015,08,28,06,36,14.70
2015,08,28,06,37,14.70
2015,08,28,06,38,14.70
2015,08,28,06,39,14.80
2015,08,28,06,40,14.80
2015,08,28,06,41,14.80
2015,08,28,06,42,14.80
2015,08,28,06,43,14.80
2015,08,28,06,44,14.80
2015,08,28,06,45,14.80
2015,08,28,06,46,14.80
2015,08,28,06,47,14.90
2015,08,28,06,48,14.90
2015,08,28,06,49,14.90
2015,08,28,06,50,15.00
2015,08,28,06,51,15.00
2015,08,28,06,52,15.00
2015,08,28,06,53,15.00
2015,08,28,06,54,15.00
2015,08,28,06,55,15.00
2015,08,28,06,56,15.00
2015,08,28,06,57,15.00
2015,08,28,06,58,15.00
2015,08,28,06,59,15.00
2015,08,28,07,00,15.00
2015,08,28,07,01,15.00
2015,08,28,07,02,15.00
2015,08,28,07,03,15.00
2015,08,28,07,04,15.00
2015,08,28,07,05,15.00
2015,08,28,07,06,15.00
2015,08,28,07,07,15.00
2015,08,28,07,08,15.00
2015,08,28,07,09,15.00
2015,08,28,07,10,15.00
2015,08,28,07,11,15.00
2015,08,28,07,12,15.00
2015,08,28,07,13,15.00
2015,08,28,07,14,15.00
2015,08,28,07,15,15.00
2015,08,28,07,16,15.00
2015,08,28,07,17,15.00
2015,08,28,07,18,15.00
2015,08,28,07,19,15.00
2015,08,28,07,20,15.00
2015,08,28,07,21,15.00
2015,08,28,07,22,15.00
2015,08,28,07,23,15.00
2015,08,28,07,24,15.00
2015,08,28,07,25,15.00
2015,08,28,07,26,15.00
2015,08,28,07,27,15.00
2015,08,28,07,28,15.00
2015,08,28,07,29,15.00
2015,08,28,07,30,15.00
2015,08,28,07,31,15.00
2015,08,28,07,32,15.00
2015,08,28,07,33,15.00
2015,08,28,07,34,15.00
2015,08,28,07,35,15.00
2015,08,28,07,36,15.10
2015,08,28,07,37,15.10
2015,08,28,07,38,15.20
2015,08,28,07,39,15.20
2015,08,28,07,40,15.20
2015,08,28,07,41,15.20
2015,08,28,07,42,15.20
2015,08,28,07,43,15.20
2015,08,28,07,44,15.20
2015,08,28,07,45,15.20
2015,08,28,07,46,15.20
2015,08,28,07,47,15.10
2015,08,28,07,48,15.10
2015,08,28,07,49,15.00
2015,08,28,07,50,15.00
2015,08,28,07,51,15.00
2015,08,28,07,52,15.00
2015,08,28,07,53,15.00
2015,08,28,07,54,14.70
2015,08,28,07,55,14.60
2015,08,28,07,56,14.50
2015,08,28,07,57,14.30
2015,08,28,07,58,14.20
2015,08,28,07,59,14.10
2015,08,28,08,00,14.10
2015,08,28,08,01,14.00
2015,08,28,08,02,14.00
2015,08,28,08,03,13.90
2015,08,28,08,04,13.80
2015,08,28,08,05,13.80
2015,08,28,08,06,13.70
2015,08,28,08,07,13.70
2015,08,28,08,08,13.70
2015,08,28,08,09,13.70
2015,08,28,08,10,13.70
2015,08,28,08,11,13.60
2015,08,28,08,12,13.60
2015,08,28,08,13,13.60
2015,08,28,08,14,13.60
2015,08,28,08,15,13.60
2015,08,28,08,16,13.50
2015,08,28,08,17,13.50
2015,08,28,08,18,13.50
2015,08,28,08,19,13.50
2015,08,28,08,20,13.50
2015,08,28,08,21,13.40
2015,08,28,08,22,13.50
2015,08,28,08,23,13.50
2015,08,28,08,24,13.50
2015,08,28,08,25,13.50
2015,08,28,08,26,13.50
2015,08,28,08,27,13.60
2015,08,28,08,28,13.60
2015,08,28,08,29,13.60
2015,08,28,08,30,13.60
2015,08,28,08,31,13.60
2015,08,28,08,32,13.70
2015,08,28,08,33,13.70
2015,08,28,08,34,13.70
2015,08,28,08,35,13.70
2015,08,28,08,36,13.70
2015,08,28,08,37,13.70
2015,08,28,08,38,13.70
2015,08,28,08,39,13.70
2015,08,28,08,40,13.70
2015,08,28,08,41,13.70
2015,08,28,08,42,13.70
2015,08,28,08,43,13.70
2015,08,28,08,44,13.70
2015,08,28,08,45,13.70
2015,08,28,08,46,13.70
2015,08,28,08,47,13.70
2015,08,28,08,48,13.60
2015,08,28,08,49,13.60
2015,08,28,08,50,13.60
2015,08,28,08,51,13.60
2015,08,28,08,52,13.60
2015,08,28,08,53,13.70
2015,08,28,08,54,13.70
2015,08,28,08,55,13.70
2015,08,28,08,56,13.70
2015,08,28,08,57,13.70
2015,08,28,08,58,13.70
2015,08,28,08,59,13.70
2015,08,28,09,00,13.70
2015,08,28,09,01,13.70
2015,08,28,09,02,13.70
2015,08,28,09,03,13.70
2015,08,28,09,04,13.80
2015,08,28,09,05,13.80
2015,08,28,09,06,13.80
2015,08,28,09,07,13.80
2015,08,28,09,08,13.80
2015,08,28,09,09,13.90
2015,08,28,09,10,13.90
2015,08,28,09,11,13.90
2015,08,28,09,12,13.90
2015,08,28,09,13,13.90
2015,08,28,09,14,14.00
2015,08,28,09,15,14.00
2015,08,28,09,16,14.00
2015,08,28,09,17,14.00
2015,08,28,09,18,14.10
2015,08,28,09,19,14.10
2015,08,28,09,20,14.10
2015,08,28,09,21,14.10
2015,08,28,09,22,14.10
2015,08,28,09,23,14.20
2015,08,28,09,24,14.20
2015,08,28,09,25,14.20
2015,08,28,09,26,14.20
2015,08,28,09,27,14.20
2015,08,28,09,28,14.30
2015,08,28,09,29,14.30
2015,08,28,09,30,14.30
2015,08,28,09,31,14.30
2015,08,28,09,32,14.40
2015,08,28,09,33,14.40
2015,08,28,09,34,14.40
2015,08,28,09,35,14.50
2015,08,28,09,36,14.50
2015,08,28,09,37,14.50
2015,08,28,09,38,14.50
2015,08,28,09,39,14.60
2015,08,28,09,40,14.60
2015,08,28,09,41,14.60
2015,08,28,09,42,14.60
2015,08,28,09,43,14.70
2015,08,28,09,44,14.70
2015,08,28,09,45,14.70
2015,08,28,09,46,14.70
2015,08,28,09,47,14.70
2015,08,28,09,48,14.70
2015,08,28,09,49,14.80
2015,08,28,09,50,14.80
2015,08,28,09,51,14.80
2015,08,28,09,52,14.80
2015,08,28,09,53,14.90
2015,08,28,09,54,14.90
2015,08,28,09,55,14.90
2015,08,28,09,56,14.90
2015,08,28,09,57,15.00
2015,08,28,09,58,15.00
2015,08,28,09,59,15.00
2015,08,28,10,00,15.00
2015,08,28,10,01,15.00
2015,08,28,10,02,15.00
2015,08,28,10,03,15.00
2015,08,28,10,04,15.00
2015,08,28,10,05,15.00
2015,08,28,10,06,15.00
2015,08,28,10,07,15.00
2015,08,28,10,08,15.00
2015,08,28,10,09,15.00
2015,08,28,10,10,15.00
2015,08,28,10,11,15.00
2015,08,28,10,12,15.00
2015,08,28,10,13,15.10
2015,08,28,10,14,15.20
2015,08,28,10,15,15.30
2015,08,28,10,16,15.30
2015,08,28,10,17,15.30
2015,08,28,10,18,15.30
2015,08,28,10,19,15.40
2015,08,28,10,20,15.50
2015,08,28,10,21,15.60
2015,08,28,10,22,15.70
2015,08,28,10,23,15.70
2015,08,28,10,24,15.70
2015,08,28,10,25,15.80
2015,08,28,10,26,15.80
2015,08,28,10,27,15.80
2015,08,28,10,28,15.90
2015,08,28,10,29,15.90
2015,08,28,10,30,15.90
2015,08,28,10,31,15.90
2015,08,28,10,32,16.00
2015,08,28,10,33,16.00
2015,08,28,10,34,16.00
2015,08,28,10,35,16.00
2015,08,28,10,36,16.10
2015,08,28,10,37,16.20
2015,08,28,10,38,16.20
2015,08,28,10,39,16.30
2015,08,28,10,40,16.30
2015,08,28,10,41,16.40
2015,08,28,10,42,16.40
2015,08,28,10,43,16.50
2015,08,28,10,44,16.40
2015,08,28,10,45,16.40
2015,08,28,10,46,16.40
2015,08,28,10,47,16.50
2015,08,28,10,48,16.50
2015,08,28,10,49,16.60
2015,08,28,10,50,16.60
2015,08,28,10,51,16.60
2015,08,28,10,52,16.60
2015,08,28,10,53,16.70
2015,08,28,10,54,16.70
2015,08,28,10,55,16.80
2015,08,28,10,56,16.80
2015,08,28,10,57,16.80
2015,08,28,10,58,16.90
2015,08,28,10,59,16.90
2015,08,28,11,00,16.80
2015,08,28,11,01,16.80
2015,08,28,11,02,16.80
2015,08,28,11,03,16.90
2015,08,28,11,04,16.90
2015,08,28,11,05,17.00
2015,08,28,11,06,17.00
2015,08,28,11,07,17.10
2015,08,28,11,08,17.10
2015,08,28,11,09,17.10
2015,08,28,11,10,17.10
2015,08,28,11,11,17.20
2015,08,28,11,12,17.20
2015,08,28,11,13,17.20
2015,08,28,11,14,17.20
2015,08,28,11,15,17.20
2015,08,28,11,16,17.20
2015,08,28,11,17,17.20
2015,08,28,11,18,17.20
2015,08,28,11,19,17.20
2015,08,28,11,20,17.20
2015,08,28,11,21,17.20
2015,08,28,11,22,17.20
2015,08,28,11,23,17.20
2015,08,28,11,24,17.30
2015,08,28,11,25,17.30
2015,08,28,11,26,17.30
2015,08,28,11,27,17.40
2015,08,28,11,28,17.50
2015,08,28,11,29,17.60
2015,08,28,11,30,17.60
2015,08,28,11,31,17.60
2015,08,28,11,32,17.70
2015,08,28,11,33,17.60
2015,08,28,11,34,17.60
2015,08,28,11,35,17.60
2015,08,28,11,36,17.50
2015,08,28,11,37,17.50
2015,08,28,11,38,17.50
2015,08,28,11,39,17.50
2015,08,28,11,40,17.50
2015,08,28,11,41,17.60
2015,08,28,11,42,17.60
2015,08,28,11,43,17.70
2015,08,28,11,44,17.80
2015,08,28,11,45,17.80
2015,08,28,11,46,17.80
2015,08,28,11,47,17.80
2015,08,28,11,48,17.80
2015,08,28,11,49,17.70
2015,08,28,11,50,17.70
2015,08,28,11,51,17.70
2015,08,28,11,52,17.70
2015,08,28,11,53,17.60
2015,08,28,11,54,17.50
2015,08,28,11,55,17.50
2015,08,28,11,56,17.50
2015,08,28,11,57,17.50
2015,08,28,11,58,17.50
2015,08,28,11,59,17.40
2015,08,28,12,00,17.30
2015,08,28,12,01,17.30
2015,08,28,12,02,17.30
2015,08,28,12,03,17.30
2015,08,28,12,04,17.20
2015,08,28,12,05,17.10
2015,08,28,12,06,17.10
2015,08,28,12,07,17.00
2015,08,28,12,08,16.90
2015,08,28,12,09,16.80
2015,08,28,12,10,16.70
2015,08,28,12,11,16.70
2015,08,28,12,12,16.70
2015,08,28,12,13,16.70
2015,08,28,12,14,16.70
2015,08,28,12,15,16.70
2015,08,28,12,16,16.70
2015,08,28,12,17,16.60
2015,08,28,12,18,16.60
2015,08,28,12,19,16.50
2015,08,28,12,20,16.50
2015,08,28,12,21,16.40
2015,08,28,12,22,16.40
2015,08,28,12,23,16.40
2015,08,28,12,24,16.40
2015,08,28,12,25,16.50
2015,08,28,12,26,16.50
2015,08,28,12,27,16.50
2015,08,28,12,28,16.50
2015,08,28,12,29,16.60
2015,08,28,12,30,16.70
2015,08,28,12,31,16.80
2015,08,28,12,32,16.80
2015,08,28,12,33,16.90
2015,08,28,12,34,17.00
2015,08,28,12,35,17.10
2015,08,28,12,36,17.20
2015,08,28,12,37,17.30
2015,08,28,12,38,17.30
2015,08,28,12,39,17.30
2015,08,28,12,40,17.30
2015,08,28,12,41,17.30
2015,08,28,12,42,17.30
2015,08,28,12,43,17.30
2015,08,28,12,44,17.30
2015,08,28,12,45,17.30
2015,08,28,12,46,17.30
2015,08,28,12,47,17.30
2015,08,28,12,48,17.40
2015,08,28,12,49,17.40
2015,08,28,12,50,17.50
2015,08,28,12,51,17.40
2015,08,28,12,52,17.40
2015,08,28,12,53,17.40
2015,08,28,12,54,17.30
2015,08,28,12,55,17.30
2015,08,28,12,56,17.30
2015,08,28,12,57,17.30
2015,08,28,12,58,17.20
2015,08,28,12,59,17.10
2015,08,28,13,00,17.00
2015,08,28,13,01,17.00
2015,08,28,13,02,16.90
2015,08,28,13,03,16.90
2015,08,28,13,04,16.90
2015,08,28,13,05,17.00
2015,08,28,13,06,17.00
2015,08,28,13,07,17.00
2015,08,28,13,08,17.00
2015,08,28,13,09,17.10
2015,08,28,13,10,17.00
2015,08,28,13,11,17.00
2015,08,28,13,12,17.10
2015,08,28,13,13,17.10
2015,08,28,13,14,17.10
2015,08,28,13,15,17.10
2015,08,28,13,16,17.10
2015,08,28,13,17,17.00
2015,08,28,13,18,17.00
2015,08,28,13,19,16.90
2015,08,28,13,20,16.90
2015,08,28,13,21,16.90
2015,08,28,13,22,16.90
2015,08,28,13,23,16.90
2015,08,28,13,24,16.80
2015,08,28,13,25,16.80
2015,08,28,13,26,16.80
2015,08,28,13,27,16.80
2015,08,28,13,28,16.90
2015,08,28,13,29,17.00
2015,08,28,13,30,17.00
2015,08,28,13,31,17.00
2015,08,28,13,32,17.10
2015,08,28,13,33,17.10
2015,08,28,13,34,17.20
2015,08,28,13,35,17.20
2015,08,28,13,36,17.20
2015,08,28,13,37,17.20
2015,08,28,13,38,17.20
2015,08,28,13,39,17.20
2015,08,28,13,40,17.30
2015,08,28,13,41,17.30
2015,08,28,13,42,17.30
2015,08,28,13,43,17.30
2015,08,28,13,44,17.30
2015,08,28,13,45,17.30
2015,08,28,13,46,17.30
2015,08,28,13,47,17.30
2015,08,28,13,48,17.30
2015,08,28,13,49,17.40
2015,08,28,13,50,17.40
2015,08,28,13,51,17.50
2015,08,28,13,52,17.50
2015,08,28,13,53,17.50
2015,08,28,13,54,17.50
2015,08,28,13,55,17.50
2015,08,28,13,56,17.50
2015,08,28,13,57,17.50
2015,08,28,13,58,17.40
2015,08,28,13,59,17.40
2015,08,28,14,00,17.40
2015,08,28,14,01,17.50
2015,08,28,14,02,17.50
2015,08,28,14,03,17.50
2015,08,28,14,04,17.50
2015,08,28,14,05,17.60
2015,08,28,14,06,17.50
2015,08,28,14,07,17.50
2015,08,28,14,08,17.50
2015,08,28,14,09,17.50
2015,08,28,14,10,17.50
2015,08,28,14,11,17.50
2015,08,28,14,12,17.40
2015,08,28,14,13,17.30
2015,08,28,14,14,17.30
2015,08,28,14,15,17.30
2015,08,28,14,16,17.30
2015,08,28,14,17,17.30
2015,08,28,14,18,17.30
2015,08,28,14,19,17.30
2015,08,28,14,20,17.30
2015,08,28,14,21,17.30
2015,08,28,14,22,17.40
2015,08,28,14,23,17.40
2015,08,28,14,24,17.40
2015,08,28,14,25,17.30
2015,08,28,14,26,17.30
2015,08,28,14,27,17.40
2015,08,28,14,28,17.40
2015,08,28,14,29,17.40
2015,08,28,14,30,17.40
2015,08,28,14,31,17.40
2015,08,28,14,32,17.50
2015,08,28,14,33,17.50
2015,08,28,14,34,17.60
2015,08,28,14,35,17.50
2015,08,28,14,36,17.40
2015,08,28,14,37,17.40
2015,08,28,14,38,17.30
2015,08,28,14,39,17.30
2015,08,28,14,40,17.30
2015,08,28,14,41,17.40
2015,08,28,14,42,17.30
2015,08,28,14,43,17.30
2015,08,28,14,44,17.30
2015,08,28,14,45,17.30
2015,08,28,14,46,17.30
2015,08,28,14,47,17.30
2015,08,28,14,48,17.40
2015,08,28,14,49,17.40
2015,08,28,14,50,17.40
2015,08,28,14,51,17.40
2015,08,28,14,52,17.40
2015,08,28,14,53,17.50
2015,08,28,14,54,17.60
2015,08,28,14,55,17.70
2015,08,28,14,56,17.70
2015,08,28,14,57,17.70
2015,08,28,14,58,17.80
2015,08,28,14,59,17.80
2015,08,28,15,00,17.80
2015,08,28,15,01,17.90
2015,08,28,15,02,18.00
2015,08,28,15,03,18.00
2015,08,28,15,04,18.10
2015,08,28,15,05,18.10
2015,08,28,15,06,18.20
2015,08,28,15,07,18.20
2015,08,28,15,08,18.20
2015,08,28,15,09,18.20
2015,08,28,15,10,18.20
2015,08,28,15,11,18.30
2015,08,28,15,12,18.20
2015,08,28,15,13,18.20
2015,08,28,15,14,18.30
2015,08,28,15,15,18.30
2015,08,28,15,16,18.30
2015,08,28,15,17,18.30
2015,08,28,15,18,18.30
2015,08,28,15,19,18.30
2015,08,28,15,20,18.30
2015,08,28,15,21,18.30
2015,08,28,15,22,18.20
2015,08,28,15,23,18.20
2015,08,28,15,24,18.20
2015,08,28,15,25,18.20
2015,08,28,15,26,18.20
2015,08,28,15,27,18.20
2015,08,28,15,28,18.10
2015,08,28,15,29,18.10
2015,08,28,15,30,18.10
2015,08,28,15,31,18.10
2015,08,28,15,32,18.10
2015,08,28,15,33,18.20
2015,08,28,15,34,18.20
2015,08,28,15,35,18.20
2015,08,28,15,36,18.20
2015,08,28,15,37,18.20
2015,08,28,15,38,18.20
2015,08,28,15,39,18.20
2015,08,28,15,40,18.30
2015,08,28,15,41,18.30
2015,08,28,15,42,18.40
2015,08,28,15,43,18.40
2015,08,28,15,44,18.40
2015,08,28,15,45,18.40
2015,08,28,15,46,18.40
2015,08,28,15,47,18.30
2015,08,28,15,48,18.30
2015,08,28,15,49,18.30
2015,08,28,15,50,18.30
2015,08,28,15,51,18.30
2015,08,28,15,52,18.30
2015,08,28,15,53,18.40
2015,08,28,15,54,18.50
2015,08,28,15,55,18.50
2015,08,28,15,56,18.60
2015,08,28,15,57,18.70
2015,08,28,15,58,18.70
2015,08,28,15,59,18.80
2015,08,28,16,00,18.90
2015,08,28,16,01,18.90
2015,08,28,16,02,18.90
2015,08,28,16,03,19.00
2015,08,28,16,04,19.10
2015,08,28,16,05,19.10
2015,08,28,16,06,19.10
2015,08,28,16,07,19.10
2015,08,28,16,08,19.00
2015,08,28,16,09,19.00
2015,08,28,16,10,19.00
2015,08,28,16,11,19.10
2015,08,28,16,12,19.10
2015,08,28,16,13,19.10
2015,08,28,16,14,19.00
2015,08,28,16,15,19.00
2015,08,28,16,16,18.90
2015,08,28,16,17,18.90
2015,08,28,16,18,18.80
2015,08,28,16,19,18.80
2015,08,28,16,20,18.80
2015,08,28,16,21,18.80
2015,08,28,16,22,18.80
2015,08,28,16,23,18.90
2015,08,28,16,24,18.90
2015,08,28,16,25,18.90
2015,08,28,16,26,18.90
2015,08,28,16,27,19.00
2015,08,28,16,28,19.00
2015,08,28,16,29,19.00
2015,08,28,16,30,19.00
2015,08,28,16,31,18.90
2015,08,28,16,32,19.00
2015,08,28,16,33,19.00
2015,08,28,16,34,18.90
2015,08,28,16,35,18.90
2015,08,28,16,36,19.00
2015,08,28,16,37,19.00
2015,08,28,16,38,19.00
2015,08,28,16,39,19.10
2015,08,28,16,40,19.10
2015,08,28,16,41,19.10
2015,08,28,16,42,19.10
2015,08,28,16,43,19.10
2015,08,28,16,44,19.20
2015,08,28,16,45,19.20
2015,08,28,16,46,19.20
2015,08,28,16,47,19.20
2015,08,28,16,48,19.20
2015,08,28,16,49,19.20
2015,08,28,16,50,19.20
2015,08,28,16,51,19.30
2015,08,28,16,52,19.30
2015,08,28,16,53,19.30
2015,08,28,16,54,19.40
2015,08,28,16,55,19.50
2015,08,28,16,56,19.50
2015,08,28,16,57,19.50
2015,08,28,16,58,19.50
2015,08,28,16,59,19.50
2015,08,28,17,00,19.40
2015,08,28,17,01,19.40
2015,08,28,17,02,19.30
2015,08,28,17,03,19.30
2015,08,28,17,04,19.30
2015,08,28,17,05,19.30
2015,08,28,17,06,19.30
2015,08,28,17,07,19.30
2015,08,28,17,08,19.30
2015,08,28,17,09,19.20
2015,08,28,17,10,19.20
2015,08,28,17,11,19.10
2015,08,28,17,12,19.10
2015,08,28,17,13,19.10
2015,08,28,17,14,19.00
2015,08,28,17,15,19.00
2015,08,28,17,16,19.00
2015,08,28,17,17,19.00
2015,08,28,17,18,19.00
2015,08,28,17,19,19.00